GFSFLT2_500_rhum_069.txt.gz
RH
15 12 8 38 42 43 49 63 93 95 95 80 96 83 73 68 80 43 20 18 46 54 47 62 86 91 80 82 66 74 94 91
5 5 5 10 35 28 31 46 71 97 96 97 91 95 96 94 94 84 67 63 33 48 65 97 97 84 80 86 90 95 92 80
5 5 9 12 11 16 29 43 67 85 94 96 96 95 98 97 95 86 74 84 68 45 86 95 95 89 89 91 90 95 91 75
6 13 12 10 13 23 33 39 45 72 92 95 96 97 97 97 97 83 67 84 83 85 96 98 93 97 94 96 97 94 78 80
9 18 15 10 12 24 36 45 76 80 92 96 84 93 94 96 97 73 81 90 89 92 100 97 95 89 95 96 96 88 92 83
12 19 14 9 10 21 30 49 79 92 95 90 80 90 96 96 96 95 94 74 84 86 87 97 95 98 96 97 88 92 87 81
14 18 14 12 10 20 36 47 66 94 95 82 80 89 85 92 96 98 94 72 67 63 84 96 93 95 94 96 93 92 78 74
18 20 16 12 10 16 36 42 65 88 87 82 87 89 97 88 96 98 82 70 59 53 78 98 96 90 97 96 94 84 76 77
20 20 16 14 14 36 40 49 80 93 96 82 83 90 92 94 92 65 69 62 56 49 75 100 100 91 98 96 88 98 76 74
16 15 16 14 13 35 39 51 91 95 96 88 86 90 92 84 76 65 74 88 72 62 62 100 98 93 98 97 90 93 89 81
14 16 17 14 11 16 42 81 81 95 93 96 96 96 86 70 73 72 76 86 94 90 90 98 98 98 98 98 96 92 98 87
13 16 17 14 9 20 29 86 78 92 92 97 97 97 91 86 71 72 81 81 86 85 83 88 98 97 94 92 95 96 97 92
16 20 16 10 9 19 31 89 89 95 95 99 96 97 96 96 91 81 69 86 91 93 94 91 91 98 99 90 98 97 97 95
22 20 14 7 7 18 42 84 94 90 87 86 97 98 100 100 91 72 68 83 95 85 90 85 80 92 100 97 94 98 96 95
23 20 11 6 6 19 50 71 80 85 79 76 78 87 98 100 99 89 88 90 94 93 90 88 91 97 99 97 98 97 96 95
25 20 11 8 7 8 18 32 70 86 80 73 77 88 89 92 94 99 96 96 98 98 99 94 93 98 98 97 96 97 98 96
25 21 11 13 11 6 8 12 31 59 77 75 81 98 95 97 98 97 94 94 96 96 98 99 98 92 94 94 94 98 97 97
24 21 14 18 14 9 7 6 8 17 63 83 78 94 92 98 98 97 93 97 97 96 97 97 96 97 96 98 96 97 98 98
22 27 27 24 17 13 13 12 10 6 9 23 80 96 100 98 97 97 98 100 98 97 98 96 95 95 96 97 98 96 98 99
18 23 32 29 21 16 16 14 15 16 17 9 11 73 92 96 98 97 97 96 94 92 96 97 99 99 97 95 98 96 97 98

GFSFLT2_500_rhum_075.txt.gz
RH
27 13 6 5 7 7 15 41 47 65 87 94 96 97 96 95 95 92 59 43 13 9 18 43 85 88 99 95 98 34 68 45
24 10 6 5 7 7 12 13 41 53 39 37 80 94 96 93 96 96 93 63 47 16 31 58 83 70 96 97 90 70 24 38
20 8 8 7 6 6 9 12 20 24 23 40 67 73 84 94 97 95 97 96 91 74 39 49 84 62 92 93 79 49 47 54
17 8 7 6 7 11 15 12 16 23 21 37 55 73 94 86 91 97 97 96 98 76 39 56 75 83 81 91 97 97 81 78
18 10 8 7 12 18 16 12 12 11 18 32 44 53 80 95 96 97 96 96 95 85 82 50 63 71 72 87 88 79 63 62
14 12 10 9 19 20 15 13 12 11 23 33 41 65 76 95 96 96 92 97 96 81 77 70 38 50 73 88 89 66 33 58
16 12 10 10 18 18 15 13 11 12 25 44 50 66 73 96 95 95 95 98 96 78 77 76 40 38 98 79 74 82 62 89
17 14 10 12 18 19 15 13 11 25 40 39 44 65 84 95 97 97 96 97 95 83 87 82 79 93 99 85 78 96 99 99
18 17 11 10 20 18 13 14 13 28 37 34 55 73 90 92 94 98 94 99 96 95 86 75 81 78 87 90 90 95 100 98
20 21 14 12 15 14 14 14 12 13 19 32 68 92 94 95 98 97 98 98 93 97 99 81 83 75 93 96 98 98 94 97
25 24 10 13 15 18 16 14 10 15 23 40 84 96 95 91 85 91 97 97 98 98 86 75 84 94 100 96 95 95 92 100
31 16 11 14 18 16 15 10 10 17 27 72 83 96 96 93 94 95 97 96 97 93 60 72 81 80 88 89 92 99 100 98
35 13 15 19 19 16 9 8 19 44 73 86 84 96 96 98 97 98 95 97 96 68 91 78 78 71 82 92 91 97 97 89
22 14 21 23 19 12 7 22 64 84 93 100 96 94 97 96 98 97 97 97 92 81 94 97 95 84 88 94 91 93 98 97
16 21 26 22 18 8 7 18 24 67 86 94 95 97 96 96 97 97 96 97 87 87 96 99 99 94 95 93 91 92 96 95
17 27 28 22 16 8 8 10 20 72 73 85 94 96 97 97 97 96 95 80 82 90 95 95 98 96 94 94 97 90 86 99
20 29 29 22 16 12 12 7 7 18 30 73 89 89 95 97 96 96 96 97 96 97 90 83 94 93 91 95 95 94 94 94
23 29 32 23 17 16 15 8 8 7 11 21 72 82 86 83 94 96 96 92 96 98 96 83 92 96 95 97 96 98 98 97
23 28 36 24 18 18 19 12 12 13 9 8 11 37 75 76 91 96 97 97 97 97 99 91 90 96 97 97 98 97 97 97
23 22 29 27 23 23 21 14 15 15 17 18 16 10 39 63 77 89 96 100 98 98 86 91 99 99 96 97 97 96 97 96

GFSFLT2_500_rhum_078.txt.gz
RH
13 14 27 24 20 9 4 5 12 24 36 73 95 96 96 96 96 95 93 85 67 30 39 46 64 49 92 86 53 53 33 17
20 24 28 26 20 6 4 6 7 15 32 65 50 33 91 97 96 97 96 82 46 43 16 33 48 46 84 93 59 78 74 19
25 28 33 28 13 7 5 5 5 14 18 28 22 40 74 96 94 96 100 96 78 53 21 21 46 78 96 92 94 95 85 44
28 33 36 29 9 6 5 6 13 23 37 27 21 33 42 59 86 86 93 94 96 96 85 46 19 56 88 91 97 84 63 36
28 45 46 32 10 7 6 9 17 33 35 11 17 23 41 42 48 79 77 100 96 96 88 86 48 43 65 83 83 73 53 51
36 58 53 28 12 8 8 17 17 20 12 9 13 26 32 40 60 78 96 97 94 96 91 83 69 44 58 89 66 69 82 89
36 60 49 41 13 8 14 22 17 14 12 10 13 30 37 51 61 80 96 97 97 97 91 96 78 49 56 62 69 75 80 88
40 48 51 44 14 8 15 20 19 16 12 12 32 38 36 43 69 93 97 96 98 97 97 89 52 30 43 56 61 79 72 90
74 71 61 35 17 10 13 17 19 15 13 12 35 32 34 46 74 93 96 96 97 97 91 72 65 46 25 39 79 86 83 88
79 72 61 22 18 10 11 16 17 14 12 10 13 18 33 67 77 90 96 97 97 97 92 79 78 71 73 70 83 97 85 81
76 78 44 27 17 12 11 14 16 15 12 10 14 24 59 92 90 99 96 97 97 97 95 91 88 73 76 84 90 81 84 86
81 76 42 26 16 12 14 18 15 11 9 11 17 30 75 97 97 93 94 96 95 97 99 96 96 82 68 77 89 86 91 92
91 70 48 30 14 14 15 14 9 8 16 29 40 76 98 97 97 96 90 95 96 97 97 98 95 73 66 85 90 91 89 86
91 84 44 26 13 17 15 8 7 25 69 82 88 95 96 93 97 98 100 97 96 95 96 97 87 57 71 74 83 94 93 98
92 76 41 18 17 19 11 7 10 19 66 96 97 97 83 89 97 97 98 97 96 96 97 88 79 92 79 91 90 93 95 94
84 64 37 20 21 17 10 8 8 19 72 78 97 96 91 91 97 95 97 96 95 97 89 82 94 89 90 92 100 94 99 93
91 59 28 20 23 18 10 14 7 8 15 59 90 96 96 97 96 97 96 96 96 96 80 90 97 95 91 88 88 91 87 90
80 60 24 20 23 19 13 17 8 8 7 14 76 96 97 97 97 96 97 96 97 84 82 84 91 89 91 97 95 93 93 92
82 56 25 22 23 19 15 19 13 15 14 14 12 21 85 91 96 96 97 97 96 96 96 96 97 95 96 98 96 97 96 96
76 60 30 20 21 19 19 23 15 17 17 20 18 15 13 68 78 96 98 96 97 98 96 96 96 95 94 96 97 97 96 97

GFSFLT2_500_rhum_081.txt.gz
RH
5 4 6 6 7 10 15 20 17 7 26 39 36 67 91 96 96 96 95 95 92 97 72 42 56 67 78 81 81 66 72 55
5 7 8 9 10 17 24 25 15 6 6 10 14 40 73 93 94 96 95 96 96 96 79 50 68 71 52 67 72 66 70 72
6 8 11 14 17 23 30 21 9 6 5 5 11 27 20 35 93 97 96 96 96 97 54 34 52 54 48 44 55 58 49 61
8 10 13 21 22 36 36 16 8 7 14 24 28 36 30 46 68 95 96 96 96 96 76 78 72 41 60 64 88 64 48 73
9 12 16 26 45 48 40 16 9 7 12 37 43 46 32 23 70 64 78 96 92 96 95 94 90 74 41 54 94 89 72 79
11 14 19 34 58 54 38 17 10 9 12 33 48 28 18 17 34 32 39 61 81 89 96 97 91 92 66 29 84 72 89 62
15 17 21 28 50 47 42 26 10 11 22 25 47 19 15 9 21 37 45 68 93 88 97 96 96 97 69 42 50 51 71 64
23 19 27 31 39 61 47 31 11 12 19 24 21 28 20 22 25 38 56 75 95 96 97 97 97 88 67 56 40 63 54 51
22 28 34 65 63 67 47 24 11 11 21 20 27 31 30 40 24 32 53 84 96 96 96 97 93 83 52 58 37 55 54 48
27 38 56 78 62 67 37 21 11 10 20 18 18 26 19 19 18 31 62 93 97 98 96 97 95 70 31 22 40 49 49 51
32 49 80 73 70 56 28 24 11 10 13 14 14 12 11 13 24 53 76 88 96 97 97 97 80 74 73 36 22 39 54 71
40 55 81 79 78 39 28 14 11 13 13 14 12 10 10 17 39 85 88 93 96 96 97 97 86 79 69 64 60 58 62 70
37 56 92 82 70 37 27 14 19 16 13 9 9 10 11 36 55 92 93 98 96 96 96 96 89 92 89 86 79 78 85 82
39 84 86 82 60 36 18 20 16 13 8 11 30 63 58 48 70 97 97 93 94 95 97 96 92 96 96 96 90 77 92 97
42 96 78 80 45 34 19 19 13 7 10 13 49 84 86 86 90 96 97 96 96 96 97 97 96 97 96 94 75 69 90 96
49 75 82 77 56 28 24 17 9 8 10 17 71 79 98 94 80 89 97 96 96 96 97 97 96 97 96 86 67 68 73 78
44 88 84 75 55 27 23 16 11 8 7 12 30 83 96 89 74 80 88 97 96 95 96 97 97 96 94 85 86 82 90 87
38 91 85 69 45 30 22 15 15 8 7 7 17 84 96 97 96 96 100 98 96 96 97 97 95 91 90 88 90 88 84 82
46 93 89 66 44 33 24 15 18 11 12 16 18 18 57 96 97 97 96 97 97 97 97 97 82 91 97 95 93 95 92 95
78 87 82 64 50 28 26 15 21 15 16 18 20 18 15 65 95 96 96 96 96 96 96 94 95 94 96 96 96 93 89 94

GFSFLT2_500_rhum_084.txt.gz
RH
7 6 5 5 5 4 4 4 3 3 6 13 19 36 54 49 54 90 98 96 96 96 95 91 58 39 44 53 49 51 58 65
7 6 6 6 5 5 4 4 3 8 12 18 10 6 11 12 59 84 96 96 96 95 95 94 72 41 55 84 71 65 69 66
7 6 6 6 6 6 5 5 7 16 22 16 8 6 5 13 36 26 47 95 96 96 96 91 83 54 59 54 49 52 66 68
8 7 7 8 7 8 8 10 22 30 22 9 7 14 14 19 37 66 72 96 96 96 95 67 74 54 73 69 56 54 66 58
8 8 8 9 8 13 16 27 36 34 16 11 11 17 33 50 50 68 41 86 96 97 96 94 75 79 83 83 60 59 62 65
8 8 10 10 11 15 17 38 42 41 22 16 17 32 70 59 28 17 44 52 76 95 94 95 82 93 82 71 62 50 53 72
8 9 11 12 16 20 20 34 44 47 28 27 15 27 43 49 21 12 18 33 48 78 80 86 95 94 96 85 75 59 46 92
10 10 12 22 19 24 32 30 40 49 27 19 20 30 34 51 31 17 24 33 47 53 83 98 95 97 97 84 86 66 42 90
10 12 15 23 23 31 67 47 52 44 24 16 16 18 29 24 36 29 33 29 46 63 97 97 96 97 96 86 83 67 44 56
10 15 24 28 27 54 64 62 62 38 22 19 11 16 29 32 44 34 26 23 37 68 94 96 96 97 89 81 71 75 36 34
10 21 32 34 33 67 62 67 52 30 23 16 10 15 22 20 25 16 12 18 38 76 96 96 97 96 91 74 61 57 38 23
14 26 38 38 38 79 76 76 41 25 13 11 12 13 16 13 15 10 10 25 60 80 97 97 97 97 95 73 46 25 24 35
26 31 51 38 53 90 77 71 33 20 11 16 17 14 11 9 10 11 27 41 72 85 96 96 97 96 92 75 66 36 30 38
35 37 41 40 81 86 79 55 25 13 16 15 10 9 13 22 42 35 29 51 86 90 96 95 96 90 90 96 83 84 86 91
37 41 38 48 92 81 84 35 17 17 14 8 9 13 32 43 64 75 61 61 97 98 98 95 97 94 91 96 95 96 96 90
32 36 43 60 90 80 81 28 21 16 8 8 10 12 37 70 96 88 89 80 88 96 96 95 97 96 96 96 97 96 93 80
41 40 44 83 84 87 76 29 23 11 11 7 7 11 19 66 88 100 86 84 97 96 95 96 97 97 96 97 96 94 84 79
49 44 56 87 78 94 65 31 19 13 13 8 7 8 29 90 91 91 88 83 96 96 97 96 95 96 96 97 96 93 88 80
52 38 45 74 82 93 62 31 18 16 13 10 14 16 30 47 96 96 87 80 94 97 96 96 97 96 98 96 96 93 94 92
50 28 33 48 88 86 62 35 16 19 16 15 17 18 19 29 67 98 97 95 98 96 98 97 96 96 97 94 93 95 96 96